Overview Statistics Trail Chart Weather Telemetry Raw packets
 

This is the latest recevied weather packets stored in our database for station/object W5CMS-13. If no packets are shown the sender has not sent any weather packets the latest 10 day(s).

<< 3 4 5 6 7 8 9 >>
Time Temp. Humidity Pressure Rain* Wind** Luminosity Snow
1788549617 35.56° C 51% 1012.6 hPa 0 mm - - -
1788549016 35.56° C 51% 1012.6 hPa 0 mm - - -
1788548416 35.56° C 52% 1012.8 hPa 0 mm - - -
1788547817 35° C 54% 1012.9 hPa 0 mm - - -
1788547217 35° C 54% 1013.1 hPa 0 mm - - -
1788546619 34.44° C 55% 1013.3 hPa 0 mm - - -
1788546017 34.44° C 56% 1013.4 hPa 0 mm - - -
1788545417 34.44° C 56% 1013.5 hPa 0 mm - - -
1788544817 33.89° C 60% 1013.6 hPa 0 mm - - -
1788544217 33.89° C 59% 1013.9 hPa 0 mm - - -
1788543617 33.89° C 61% 1013.9 hPa 0 mm - - -
1788543016 32.78° C 62% 1014 hPa 0 mm - - -
1788542417 32.78° C 64% 1014.2 hPa 0 mm - - -
1788541817 32.78° C 65% 1014.2 hPa 0 mm - - -
1788541217 32.22° C 65% 1014.3 hPa 0 mm - - -
1788540617 31.67° C 65% 1014.3 hPa 0 mm - - -
1788540017 32.22° C 66% 1014.4 hPa 0 mm - - -
1788539417 31.67° C 67% 1014.4 hPa 0 mm - - -
1788538817 31.11° C 69% 1014.4 hPa 0 mm - - -
1788538235 31.11° C 70% 1014.4 hPa 0 mm - - -
1788537617 30.56° C 72% 1014.3 hPa 0 mm - - -
1788537017 30.56° C 74% 1014.3 hPa 0 mm - - -
1788536417 30° C 75% 1014.2 hPa 0 mm - - -
1788535817 29.44° C 77% 1014.3 hPa 0 mm - - -
1788535222 29.44° C 77% 1014.3 hPa 0 mm - - -

* Rain latest hour (hover to see other rain measurements)
** Current wind speed in m/s (hover to see current wind gust speed)